FW1924 Weather Reports


Display with metric or nautical units.
time (UTC)temp
F
wind
direction
speed
MPH
gust
MPH
rain 1hr
in
rain 24hr
in
rain mn
in
humidity
%
barometer
mb
20260903191540 83 148 13.0 26.0 0.00 0.00 0.00 16 1003.2
20260903190030 82 148 9.0 23.0 0.00 0.00 0.00 18 1003.4
20260903184621 82 153 21.0 29.0 0.00 0.00 0.00 14 1003.4
20260903183016 81 188 16.0 26.0 0.00 0.00 0.00 15 1003.8
20260903181515 81 177 19.0 27.0 0.00 0.00 0.00 15 1003.9
20260903180004 80 172 7.0 17.0 0.00 0.00 0.00 19 1004.1
20260903174553 79 122 15.0 22.0 0.00 0.00 0.00 17 1004.2
20260903173043 78 154 16.0 27.0 0.00 0.00 0.00 17 1004.2
20260903171529 76 128 7.0 21.0 0.00 0.00 0.00 21 1004.3
20260903170020 74 117 10.0 21.0 0.00 0.00 0.00 22 1004.4
20260903164505 73 127 11.0 18.0 0.00 0.00 0.00 24 1004.3
20260903163053 71 111 10.0 20.0 0.00 0.00 0.00 24 1004.4
20260903161642 70 140 14.0 24.0 0.00 0.00 0.00 23 1004.4
20260903160140 69 153 13.0 21.0 0.00 0.00 0.00 25 1004.5
20260903154536 68 136 11.0 19.0 0.00 0.00 0.00 25 1004.3
20260903153024 67 169 15.0 20.0 0.00 0.00 0.00 25 1004.5
20260903151513 65 153 6.0 18.0 0.00 0.00 0.00 26 1004.7
20260903150026 62 196 0.0 6.0 0.00 0.00 0.00 29 1004.6
20260903144512 61 186 0.0 8.0 0.00 0.01 0.00 30 1004.6
20260903143108 60 224 0.0 7.0 0.00 0.01 0.00 30 1004.7
20260903141657 58 228 0.0 6.0 0.00 0.01 0.00 31 1004.6
20260903140048 56 215 0.0 5.0 0.00 0.01 0.00 34 1004.6
20260903134546 54 205 0.0 0.0 0.00 0.01 0.00 35 1004.4
20260903133038 53 263 0.0 0.0 0.00 0.01 0.00 45 1004.3
20260903131526 53 276 0.0 0.0 0.00 0.01 0.00 47 1003.9
20260903130016 53 281 0.0 0.0 0.00 0.01 0.00 46 1003.7
20260903124514 53 209 0.0 0.0 0.00 0.01 0.00 46 1003.5
20260903123006 54 209 0.0 0.0 0.00 0.01 0.00 45 1003.5
20260903121556 54 209 0.0 0.0 0.00 0.01 0.00 44 1003.3
20260903120100 55 209 0.0 0.0 0.00 0.01 0.00 43 1003.3
20260903114545 55 209 0.0 0.0 0.00 0.01 0.00 40 1003.2
20260903113044 56 209 0.0 0.0 0.00 0.01 0.00 40 1003.2
20260903111534 56 208 0.0 0.0 0.00 0.01 0.00 38 1003.2
20260903110022 57 191 0.0 0.0 0.00 0.01 0.00 38 1003.3
20260903104514 58 191 0.0 0.0 0.00 0.01 0.00 33 1003.2
20260903103015 58 180 0.0 0.0 0.00 0.01 0.00 32 1003.1
20260903101507 58 192 0.0 0.0 0.00 0.01 0.00 34 1003.2
20260903100100 57 250 0.0 0.0 0.00 0.01 0.00 35 1002.9
20260903094554 57 260 0.0 0.0 0.00 0.01 0.00 40 1002.9
20260903093045 58 272 0.0 0.0 0.00 0.01 0.00 41 1002.7
20260903091528 59 273 0.0 0.0 0.00 0.01 0.00 39 1002.6
20260903090027 59 273 0.0 0.0 0.00 0.01 0.00 38 1002.6
20260903084514 60 273 0.0 0.0 0.00 0.01 0.00 36 1002.7
20260903083105 60 273 0.0 0.0 0.00 0.01 0.00 35 1002.7
20260903081527 61 282 0.0 0.0 0.00 0.01 0.00 36 1002.7
20260903080031 62 292 0.0 0.0 0.00 0.01 0.00 37 1002.6
20260903074514 63 292 0.0 0.0 0.00 0.01 0.00 36 1002.6
20260903073003 63 298 0.0 0.0 0.00 0.01 0.00 33 1002.4
20260903071606 64 300 0.0 0.0 0.00 0.01 0.00 34 1002.3
20260903070050 65 308 0.0 6.0 0.00 0.01 0.00 32 1002.2
20260903064543 65 306 5.0 12.0 0.00 0.01 0.00 31 1002.2
20260903063029 66 309 1.0 9.0 0.00 0.01 0.00 30 1002.0
20260903061540 66 311 2.0 8.0 0.00 0.01 0.00 28 1002.0
20260903060016 66 301 0.0 0.0 0.00 0.01 0.00 27 1001.8
20260903054516 66 283 0.0 0.0 0.00 0.01 0.01 29 1001.6
20260903053016 67 272 0.0 0.0 0.00 0.01 0.01 30 1001.7
20260903051516 67 272 0.0 0.0 0.00 0.01 0.01 25 1001.6
20260903050026 68 273 0.0 0.0 0.00 0.01 0.01 25 1001.7
20260903044516 68 269 0.0 0.0 0.00 0.01 0.01 25 1001.8
20260903043008 69 269 0.0 0.0 0.00 0.01 0.01 25 1001.7
20260903041500 69 279 0.0 7.0 0.00 0.01 0.01 24 1001.8
20260903040054 69 293 2.0 9.0 0.00 0.01 0.01 25 1001.5
20260903034557 69 299 0.0 6.0 0.00 0.01 0.01 25 1001.2
20260903033055 69 300 0.0 0.0 0.00 0.01 0.01 25 1001.1
20260903031603 70 296 0.0 0.0 0.00 0.01 0.01 25 1001.2
20260903030052 71 296 0.0 1.0 0.00 0.01 0.01 24 1001.1
20260903024545 72 304 0.0 4.0 0.00 0.01 0.01 24 1000.9
20260903023038 73 245 2.0 8.0 0.00 0.01 0.01 23 1000.9
20260903021526 74 295 0.0 7.0 0.00 0.01 0.01 24 1000.9
20260903020017 76 209 0.0 0.0 0.00 0.01 0.01 21 1000.7
20260903014508 76 202 0.0 8.0 0.00 0.01 0.01 17 1000.6
20260903013101 77 189 0.0 6.0 0.00 0.01 0.01 17 1000.6
20260903011557 78 167 5.0 13.0 0.00 0.01 0.01 15 1000.8
20260903010048 78 182 2.0 13.0 0.00 0.01 0.01 15 1000.9
20260903004502 79 157 6.0 16.0 0.00 0.01 0.01 15 1001.0
20260903003100 79 194 3.0 13.0 0.00 0.01 0.01 15 1001.1
20260903001557 80 192 6.0 15.0 0.00 0.01 0.01 15 1001.1
20260903000045 80 180 8.0 15.0 0.00 0.01 0.01 15 1001.1
20260902234536 80 175 12.0 20.0 0.00 0.01 0.01 15 1000.9
20260902233036 81 171 4.0 18.0 0.00 0.01 0.01 17 1001.1
20260902231636 82 191 13.0 28.0 0.00 0.01 0.01 16 1001.1
20260902230025 82 223 4.0 15.0 0.00 0.01 0.01 15 1001.5
20260902224516 82 180 14.0 25.0 0.00 0.01 0.01 15 1001.3
20260902223009 83 225 9.0 26.0 0.00 0.01 0.01 15 1001.3
20260902221600 83 150 12.0 26.0 0.00 0.01 0.01 18 1001.4
20260902220101 82 205 11.0 20.0 0.00 0.01 0.01 17 1001.6
20260902214552 82 152 2.0 19.0 0.00 0.01 0.01 17 1001.7
20260902213045 83 184 11.0 20.0 0.00 0.01 0.01 15 1001.9
20260902211534 84 150 8.0 22.0 0.00 0.01 0.01 17 1001.8
20260902210030 84 164 17.0 30.0 0.00 0.01 0.01 16 1001.8
20260902204518 84 144 11.0 31.0 0.00 0.01 0.01 22 1001.9
20260902203004 83 158 17.0 36.0 0.00 0.01 0.01 22 1002.1
20260902201556 83 200 16.0 30.0 0.00 0.01 0.01 23 1002.2
20260902200054 82 151 11.0 33.0 0.00 0.01 0.01 24 1002.4
20260902194537 82 168 20.0 28.0 0.00 0.01 0.01 24 1002.4
20260902193026 82 224 11.0 28.0 0.00 0.01 0.01 25 1002.6